SCP
0 0 0 0 0 0 0 0 0 0 0 0 1 0 0 0 0 0 1 0 0 0 0 0 0 0 0 0 0 0 0 0 0 -0 -0 -0 -0 -0 -0 -0 -0 -0 -0
0 0 0 0 0 0 0 0 0 0 0 0 0 0 0 0 0 0 0 0 0 0 0 0 0 0 0 0 0 0 0 0 0 0 -0 -0 -0 -0 -0 -0 -0 -0 -0
0 0 0 0 0 0 0 0 0 0 0 0 0 0 0 0 0 0 0 0 0 -0 0 0 0 0 0 0 0 0 0 0 0 0 0 -0 -0 -0 -0 -0 -0 -0 -0
0 0 0 0 0 0 0 0 1 0 0 0 0 0 0 0 0 0 0 0 0 0 0 0 0 0 0 0 0 0 0 0 0 0 0 0 -0 -0 -0 -0 -0 -0 -0
0 0 0 0 0 0 0 1 0 0 0 0 0 0 0 0 0 0 0 0 0 0 0 0 0 0 1 0 0 0 0 0 -0 -0 0 0 0 -0 -0 -0 -0 -0 -0
0 0 -0 0 0 0 1 0 0 0 0 0 0 0 0 0 0 0 0 0 0 0 0 0 0 0 0 0 0 0 0 -0 -0 0 0 0 0 -0 -0 -0 -0 -0 -0
0 0 0 0 0 0 0 0 0 0 0 0 0 0 0 0 0 0 0 0 0 0 0 0 0 0 0 0 0 0 -0 -0 0 0 0 0 0 -0 -0 -0 -0 -0 -0
0 0 0 0 0 0 0 0 0 0 -0 -0 0 0 0 0 0 0 0 0 0 0 0 0 0 0 0 0 0 0 -0 0 0 0 0 0 0 0 0 -0 -0 -0 -0
1 0 0 0 0 0 0 0 0 0 -0 0 0 0 0 0 0 0 0 0 0 0 0 0 0 0 0 0 0 0 0 0 0 0 0 0 0 0 0 -0 -0 -0 -0
1 1 0 0 0 0 0 0 0 0 0 0 0 0 -0 0 0 0 0 0 0 0 0 0 0 0 0 0 0 0 0 0 0 0 0 0 0 0 0 0 -0 -0 -0
1 1 1 0 0 0 0 0 0 0 0 0 0 0 0 0 0 0 0 0 0 0 0 0 0 0 0 0 0 0 0 0 0 0 0 0 0 0 0 0 -0 0 -0
1 1 1 0 0 0 0 1 0 0 0 0 0 0 0 0 0 0 0 0 0 0 0 0 0 0 0 0 0 0 0 0 0 0 0 0 0 0 0 0 0 0 0
1 1 1 1 0 0 0 1 1 0 0 0 0 0 0 0 0 0 0 0 0 0 0 0 0 0 0 0 0 0 0 0 -0 0 0 0 0 0 0 0 0 0 0
0 1 1 1 0 0 1 1 1 1 1 0 0 0 0 0 0 0 0 0 0 0 0 0 0 0 0 0 0 0 0 0 0 0 0 0 0 0 0 0 0 0 0
0 1 1 1 1 0 0 0 1 1 1 0 0 0 0 0 0 0 0 1 0 0 0 0 0 0 0 0 0 0 0 0 0 0 0 0 0 0 0 0 0 0 0
0 1 2 1 1 0 0 0 1 1 0 1 0 0 1 1 1 0 0 0 0 0 0 0 0 0 0 0 0 0 0 0 0 0 0 0 0 0 0 0 0 0 0
0 0 1 1 1 1 0 1 0 0 0 0 0 0 0 0 1 0 0 1 0 1 0 0 0 0 0 0 0 0 0 0 0 0 0 0 0 0 0 0 0 0 0
0 0 1 1 1 1 1 1 0 0 0 0 0 1 0 0 0 0 0 0 1 0 0 0 0 0 0 0 0 0 0 0 0 0 0 0 0 0 0 0 0 0 0
0 0 1 1 1 1 1 1 1 1 0 0 0 0 0 0 0 0 0 0 0 0 0 0 0 0 0 0 0 0 0 0 0 0 0 0 0 0 0 0 0 0 0
0 0 0 1 1 1 1 1 1 1 0 0 0 0 0 0 0 0 0 0 0 0 0 0 0 0 0 0 0 0 0 0 0 0 0 0 0 0 0 0 0 0 0
0 0 0 1 1 2 2 1 1 1 0 0 0 0 0 0 0 0 0 0 0 0 0 0 0 0 0 0 0 0 0 0 0 0 0 0 0 0 0 0 0 0 0
0 0 0 1 1 2 1 1 1 1 0 0 0 0 0 0 0 0 0 0 0 0 0 0 0 0 0 0 0 0 0 0 0 0 0 0 0 0 0 0 0 0 0
0 0 0 0 1 2 1 1 1 0 0 0 0 0 0 0 0 0 0 0 0 0 0 0 0 0 0 0 0 0 0 0 0 0 0 0 0 0 0 0 0 0 0
0 0 0 0 1 2 1 1 1 0 0 0 0 0 0 0 0 0 0 0 0 0 0 0 0 0 0 0 0 0 0 0 0 0 0 0 0 0 0 0 0 0 0
0 0 0 0 1 1 1 1 1 0 0 0 0 0 0 0 0 0 0 0 0 0 0 0 0 0 0 0 0 0 0 0 0 0 0 0 0 0 0 0 0 0 0
0 0 0 0 1 1 0 1 1 0 0 0 0 0 0 0 0 0 0 0 0 0 0 0 0 0 0 0 0 0 0 0 0 0 0 0 0 0 0 0 0 0 0
Wind_Speed_500mb
14 18 13 10 7 10 15 21 24 26 27 29 29 27 27 24 25 26 28 31 34 34 35 34 34 34 32 29 28 28 32 33 32 35 40 41 42 42 41 41 38 42 42
25 18 12 8 5 7 14 21 26 27 28 31 32 31 30 27 28 29 31 33 35 35 32 34 34 33 32 30 26 29 34 35 35 38 40 40 42 43 41 42 40 45 44
25 16 8 5 3 7 13 20 27 28 30 31 33 32 32 32 29 32 34 36 36 34 31 35 36 35 33 29 29 32 32 32 37 37 37 39 42 41 38 32 41 41 39
23 14 9 7 8 10 15 20 27 30 32 33 35 34 35 33 33 35 38 39 37 33 34 37 35 34 32 32 30 33 33 35 36 37 37 37 38 35 33 35 35 30 26
23 17 13 9 9 13 17 20 27 31 33 35 35 38 38 34 38 37 40 37 38 38 36 35 34 32 32 29 31 34 37 38 35 31 35 35 33 32 29 27 25 22 20
23 19 12 12 13 14 17 20 25 31 32 33 34 37 37 37 43 43 41 41 37 36 36 30 30 27 29 31 34 37 39 41 25 38 32 30 30 31 31 31 24 19 11
23 21 15 15 13 15 14 19 24 29 30 30 30 33 38 41 41 39 37 35 31 32 17 15 23 22 27 32 34 35 37 34 26 19 22 26 28 32 32 27 21 14 13
26 23 21 18 13 14 12 18 24 27 26 24 26 32 38 41 41 40 41 42 39 33 31 29 15 17 28 35 35 33 38 27 25 28 24 25 28 30 28 23 17 16 15
32 28 25 19 15 14 13 17 25 28 29 29 31 35 41 43 45 46 48 43 36 33 27 30 28 22 25 34 34 33 36 32 24 28 26 24 26 29 25 23 20 16 18
32 32 29 23 17 16 16 18 25 30 31 33 34 35 38 42 45 48 45 36 27 23 30 35 53 44 42 37 35 32 37 33 26 21 27 18 28 21 24 28 25 21 21
28 29 34 28 21 16 18 18 24 30 33 35 35 36 38 43 48 49 46 50 30 30 32 23 28 37 44 39 39 34 37 26 27 27 20 16 14 23 25 27 26 24 25
31 31 37 33 25 21 18 24 26 29 32 36 41 42 42 44 46 46 52 56 30 31 27 23 27 38 37 44 44 38 36 25 32 17 24 20 21 24 25 25 27 28 29
37 34 38 36 30 25 24 23 24 28 32 37 38 39 45 39 45 46 47 44 38 34 28 32 39 44 48 48 51 44 32 37 22 25 20 19 22 26 31 29 31 30 33
41 41 40 41 39 29 27 27 30 33 38 40 44 40 42 47 43 44 39 34 42 42 41 40 44 44 47 50 53 45 38 24 22 23 21 23 28 27 29 34 31 31 33
44 42 44 45 47 39 34 28 38 37 46 48 49 53 46 42 48 48 41 40 45 41 42 46 44 55 50 49 46 41 31 27 28 22 22 27 31 27 28 30 30 32 30
45 46 46 49 52 45 35 34 35 40 31 42 50 56 60 59 55 46 45 44 45 41 47 44 46 59 56 50 47 37 33 28 29 22 21 37 31 29 29 34 31 31 32
48 47 50 52 54 52 44 38 36 38 35 34 46 52 60 63 63 60 57 49 49 45 48 45 50 55 54 50 43 36 32 29 29 30 26 31 36 31 28 25 28 32 30
46 49 48 46 53 59 56 47 38 34 38 36 34 43 54 58 61 64 62 60 58 55 51 50 53 57 58 50 44 37 31 28 31 31 25 28 34 32 31 31 30 28 30
45 47 50 51 51 63 61 58 49 46 43 45 37 40 49 55 55 57 57 54 60 60 59 58 56 68 60 53 48 42 33 30 32 31 30 29 22 27 29 34 33 31 32
45 44 50 52 53 56 65 63 56 54 50 47 44 47 41 50 54 54 50 56 58 64 65 61 58 77 62 54 45 45 36 37 35 35 37 30 31 29 27 32 41 38 36
43 42 49 55 56 61 69 73 67 61 57 51 52 39 37 43 48 56 54 63 69 58 68 65 68 73 61 55 50 48 37 34 40 39 45 42 32 31 33 40 32 31 36
51 51 52 56 57 71 72 75 61 58 53 41 44 41 39 44 49 51 52 68 73 68 79 71 88 78 65 60 59 52 34 33 36 33 35 41 31 32 32 33 34 32 33
51 48 56 57 59 75 68 52 43 36 41 39 43 39 45 53 49 46 44 64 62 79 82 83 93 80 73 69 66 50 31 23 36 36 36 36 32 36 37 37 38 39 37
55 54 51 56 58 81 59 53 55 48 44 37 35 32 47 48 47 47 43 58 79 78 84 79 98 87 78 76 62 39 34 29 38 24 37 38 38 38 42 40 45 50 47
49 55 51 54 59 86 63 59 57 48 36 28 30 38 43 45 34 34 26 37 69 90 94 76 90 85 72 75 70 56 42 32 43 38 35 39 41 39 41 50 44 49 50
42 50 52 54 66 80 67 66 57 51 38 33 33 38 43 40 41 32 25 49 75 77 66 79 87 82 75 66 65 55 51 39 36 32 20 35 39 38 41 42 49 56 54
Wind_Direction_500mb
152 150 140 137 160 198 214 221 223 217 206 199 202 208 210 207 196 188 181 177 174 173 176 180 177 174 170 167 164 161 164 166 162 150 141 136 131 128 127 125 122 124 125
156 159 138 142 155 213 223 224 222 216 206 198 201 208 210 211 201 192 188 184 179 179 179 180 176 176 170 168 161 159 155 151 146 143 139 136 132 130 128 127 130 129 129
154 167 133 146 196 237 238 227 220 213 206 198 200 207 213 212 203 199 194 189 186 187 185 182 177 174 172 166 161 161 154 146 142 139 133 127 137 136 134 136 130 134 134
153 178 193 192 214 244 249 227 219 213 208 203 205 208 216 212 203 205 201 193 191 189 186 176 175 176 171 166 166 160 153 149 143 138 133 131 138 142 143 141 138 143 144
161 163 204 221 236 257 252 228 213 213 214 212 214 216 218 214 204 207 204 196 191 191 180 170 172 176 172 173 169 158 150 143 133 121 132 133 137 146 148 142 142 144 156
164 162 211 231 251 260 252 228 209 209 213 218 220 220 215 209 205 204 203 205 197 187 176 175 178 182 182 179 166 155 150 139 119 145 142 136 140 143 150 150 152 151 164
167 179 221 238 255 271 256 223 212 207 211 217 214 209 208 207 206 203 201 206 203 168 157 172 194 202 183 178 166 158 148 131 136 146 142 152 152 155 157 160 165 164 159
183 209 235 240 257 276 262 220 212 209 207 212 215 206 202 201 202 199 200 202 204 194 194 202 193 202 189 182 174 164 150 146 139 181 153 160 166 165 170 176 190 162 159
205 214 234 238 249 263 257 224 211 209 205 211 212 208 207 208 204 202 204 206 207 203 208 221 194 193 201 195 185 169 160 155 181 171 156 170 173 177 189 196 202 207 181
210 218 222 231 244 254 245 230 212 211 207 207 208 214 217 214 211 206 206 205 200 226 227 233 230 214 212 210 196 179 166 173 162 155 163 192 178 190 207 203 202 205 177
197 215 219 224 232 217 230 232 221 211 209 211 210 213 213 212 213 213 204 200 219 233 212 234 226 212 194 203 204 184 170 167 169 176 193 213 231 191 195 189 192 184 171
202 205 230 222 227 200 222 224 228 221 217 213 216 212 212 211 210 208 214 210 233 211 226 218 214 198 205 202 201 184 165 185 170 209 219 220 242 181 176 175 175 170 155
213 218 224 225 219 202 204 211 211 218 218 216 215 217 209 210 208 206 211 224 213 212 214 226 224 227 197 195 195 180 178 179 150 178 203 229 210 183 169 169 163 160 154
218 217 221 227 222 211 208 211 213 208 214 219 216 213 209 209 212 201 206 214 228 226 231 224 217 198 186 195 192 182 180 169 180 202 217 237 186 188 180 170 164 165 167
219 218 222 224 225 221 216 220 215 218 227 226 229 224 216 212 219 212 212 223 236 236 221 213 212 208 189 194 186 175 172 178 174 212 222 199 184 191 181 174 172 174 178
224 219 214 228 222 221 212 211 236 229 221 230 229 230 229 226 227 225 229 227 239 232 209 208 203 195 189 190 176 174 174 180 176 176 198 180 186 189 183 181 177 188 188
228 220 226 231 219 219 215 210 232 221 213 221 227 234 232 235 235 238 240 236 231 223 212 205 211 197 188 183 168 174 169 178 181 177 175 184 179 186 186 193 188 195 191
231 221 216 220 223 218 223 219 215 227 219 219 218 231 235 237 237 239 241 242 234 222 209 203 198 197 190 183 170 174 174 175 174 173 174 180 186 186 190 194 201 205 202
231 224 213 212 228 220 223 226 223 224 228 226 221 236 237 240 238 241 239 235 231 216 209 204 199 195 186 178 175 173 173 170 174 177 178 177 185 195 197 200 205 210 207
232 226 217 215 216 221 220 224 226 229 233 231 222 226 233 241 239 236 236 226 221 214 208 207 213 196 184 175 173 171 171 178 178 185 178 180 189 194 196 217 207 209 212
230 225 217 213 212 224 214 221 223 225 227 232 233 235 233 242 239 239 240 227 206 218 209 201 194 186 185 169 173 167 169 176 190 198 196 178 197 200 199 214 205 209 228
234 228 223 215 211 227 221 221 222 222 227 229 234 227 236 234 237 236 241 238 221 215 209 198 191 193 199 181 173 163 160 174 187 201 201 190 200 204 207 211 207 211 225
241 230 227 222 215 227 225 208 209 214 219 218 226 228 235 234 236 242 243 222 220 215 209 204 196 198 192 189 184 173 162 190 189 204 207 204 207 207 211 212 212 215 215
245 239 229 223 215 227 211 204 204 208 209 219 217 229 231 235 240 240 235 228 218 220 215 214 201 199 196 185 186 185 184 180 181 187 214 210 197 215 214 214 223 218 220
250 239 228 221 213 226 209 201 204 205 207 209 206 219 230 231 229 216 227 222 222 214 210 212 190 190 193 192 192 186 196 204 201 196 196 215 217 220 223 222 219 228 226
255 242 223 216 212 221 211 201 202 202 196 200 197 200 219 223 212 205 206 205 202 207 214 205 189 197 197 197 202 198 203 201 199 211 203 202 214 225 225 227 231 227 233
Wind_Speed_850mb
14 18 13 10 7 10 15 21 24 26 27 29 29 27 27 24 25 26 28 31 34 34 35 34 34 34 32 29 28 28 32 33 32 35 40 41 42 42 41 41 38 42 42
25 18 12 8 5 7 14 21 26 27 28 31 32 31 30 27 28 29 31 33 35 35 32 34 34 33 32 30 26 29 34 35 35 38 40 40 42 43 41 42 40 45 44
25 16 8 5 3 7 13 20 27 28 30 31 33 32 32 32 29 32 34 36 36 34 31 35 36 35 33 29 29 32 32 32 37 37 37 39 42 41 38 32 41 41 39
23 14 9 7 8 10 15 20 27 30 32 33 35 34 35 33 33 35 38 39 37 33 34 37 35 34 32 32 30 33 33 35 36 37 37 37 38 35 33 35 35 30 26
23 17 13 9 9 13 17 20 27 31 33 35 35 38 38 34 38 37 40 37 38 38 36 35 34 32 32 29 31 34 37 38 35 31 35 35 33 32 29 27 25 22 20
23 19 12 12 13 14 17 20 25 31 32 33 34 37 37 37 43 43 41 41 37 36 36 30 30 27 29 31 34 37 39 41 25 38 32 30 30 31 31 31 24 19 11
23 21 15 15 13 15 14 19 24 29 30 30 30 33 38 41 41 39 37 35 31 32 17 15 23 22 27 32 34 35 37 34 26 19 22 26 28 32 32 27 21 14 13
26 23 21 18 13 14 12 18 24 27 26 24 26 32 38 41 41 40 41 42 39 33 31 29 15 17 28 35 35 33 38 27 25 28 24 25 28 30 28 23 17 16 15
32 28 25 19 15 14 13 17 25 28 29 29 31 35 41 43 45 46 48 43 36 33 27 30 28 22 25 34 34 33 36 32 24 28 26 24 26 29 25 23 20 16 18
32 32 29 23 17 16 16 18 25 30 31 33 34 35 38 42 45 48 45 36 27 23 30 35 53 44 42 37 35 32 37 33 26 21 27 18 28 21 24 28 25 21 21
28 29 34 28 21 16 18 18 24 30 33 35 35 36 38 43 48 49 46 50 30 30 32 23 28 37 44 39 39 34 37 26 27 27 20 16 14 23 25 27 26 24 25
31 31 37 33 25 21 18 24 26 29 32 36 41 42 42 44 46 46 52 56 30 31 27 23 27 38 37 44 44 38 36 25 32 17 24 20 21 24 25 25 27 28 29
37 34 38 36 30 25 24 23 24 28 32 37 38 39 45 39 45 46 47 44 38 34 28 32 39 44 48 48 51 44 32 37 22 25 20 19 22 26 31 29 31 30 33
41 41 40 41 39 29 27 27 30 33 38 40 44 40 42 47 43 44 39 34 42 42 41 40 44 44 47 50 53 45 38 24 22 23 21 23 28 27 29 34 31 31 33
44 42 44 45 47 39 34 28 38 37 46 48 49 53 46 42 48 48 41 40 45 41 42 46 44 55 50 49 46 41 31 27 28 22 22 27 31 27 28 30 30 32 30
45 46 46 49 52 45 35 34 35 40 31 42 50 56 60 59 55 46 45 44 45 41 47 44 46 59 56 50 47 37 33 28 29 22 21 37 31 29 29 34 31 31 32
48 47 50 52 54 52 44 38 36 38 35 34 46 52 60 63 63 60 57 49 49 45 48 45 50 55 54 50 43 36 32 29 29 30 26 31 36 31 28 25 28 32 30
46 49 48 46 53 59 56 47 38 34 38 36 34 43 54 58 61 64 62 60 58 55 51 50 53 57 58 50 44 37 31 28 31 31 25 28 34 32 31 31 30 28 30
45 47 50 51 51 63 61 58 49 46 43 45 37 40 49 55 55 57 57 54 60 60 59 58 56 68 60 53 48 42 33 30 32 31 30 29 22 27 29 34 33 31 32
45 44 50 52 53 56 65 63 56 54 50 47 44 47 41 50 54 54 50 56 58 64 65 61 58 77 62 54 45 45 36 37 35 35 37 30 31 29 27 32 41 38 36
43 42 49 55 56 61 69 73 67 61 57 51 52 39 37 43 48 56 54 63 69 58 68 65 68 73 61 55 50 48 37 34 40 39 45 42 32 31 33 40 32 31 36
51 51 52 56 57 71 72 75 61 58 53 41 44 41 39 44 49 51 52 68 73 68 79 71 88 78 65 60 59 52 34 33 36 33 35 41 31 32 32 33 34 32 33
51 48 56 57 59 75 68 52 43 36 41 39 43 39 45 53 49 46 44 64 62 79 82 83 93 80 73 69 66 50 31 23 36 36 36 36 32 36 37 37 38 39 37
55 54 51 56 58 81 59 53 55 48 44 37 35 32 47 48 47 47 43 58 79 78 84 79 98 87 78 76 62 39 34 29 38 24 37 38 38 38 42 40 45 50 47
49 55 51 54 59 86 63 59 57 48 36 28 30 38 43 45 34 34 26 37 69 90 94 76 90 85 72 75 70 56 42 32 43 38 35 39 41 39 41 50 44 49 50
42 50 52 54 66 80 67 66 57 51 38 33 33 38 43 40 41 32 25 49 75 77 66 79 87 82 75 66 65 55 51 39 36 32 20 35 39 38 41 42 49 56 54
Wind_Direction_850mb
152 150 140 137 160 198 214 221 223 217 206 199 202 208 210 207 196 188 181 177 174 173 176 180 177 174 170 167 164 161 164 166 162 150 141 136 131 128 127 125 122 124 125
156 159 138 142 155 213 223 224 222 216 206 198 201 208 210 211 201 192 188 184 179 179 179 180 176 176 170 168 161 159 155 151 146 143 139 136 132 130 128 127 130 129 129
154 167 133 146 196 237 238 227 220 213 206 198 200 207 213 212 203 199 194 189 186 187 185 182 177 174 172 166 161 161 154 146 142 139 133 127 137 136 134 136 130 134 134
153 178 193 192 214 244 249 227 219 213 208 203 205 208 216 212 203 205 201 193 191 189 186 176 175 176 171 166 166 160 153 149 143 138 133 131 138 142 143 141 138 143 144
161 163 204 221 236 257 252 228 213 213 214 212 214 216 218 214 204 207 204 196 191 191 180 170 172 176 172 173 169 158 150 143 133 121 132 133 137 146 148 142 142 144 156
164 162 211 231 251 260 252 228 209 209 213 218 220 220 215 209 205 204 203 205 197 187 176 175 178 182 182 179 166 155 150 139 119 145 142 136 140 143 150 150 152 151 164
167 179 221 238 255 271 256 223 212 207 211 217 214 209 208 207 206 203 201 206 203 168 157 172 194 202 183 178 166 158 148 131 136 146 142 152 152 155 157 160 165 164 159
183 209 235 240 257 276 262 220 212 209 207 212 215 206 202 201 202 199 200 202 204 194 194 202 193 202 189 182 174 164 150 146 139 181 153 160 166 165 170 176 190 162 159
205 214 234 238 249 263 257 224 211 209 205 211 212 208 207 208 204 202 204 206 207 203 208 221 194 193 201 195 185 169 160 155 181 171 156 170 173 177 189 196 202 207 181
210 218 222 231 244 254 245 230 212 211 207 207 208 214 217 214 211 206 206 205 200 226 227 233 230 214 212 210 196 179 166 173 162 155 163 192 178 190 207 203 202 205 177
197 215 219 224 232 217 230 232 221 211 209 211 210 213 213 212 213 213 204 200 219 233 212 234 226 212 194 203 204 184 170 167 169 176 193 213 231 191 195 189 192 184 171
202 205 230 222 227 200 222 224 228 221 217 213 216 212 212 211 210 208 214 210 233 211 226 218 214 198 205 202 201 184 165 185 170 209 219 220 242 181 176 175 175 170 155
213 218 224 225 219 202 204 211 211 218 218 216 215 217 209 210 208 206 211 224 213 212 214 226 224 227 197 195 195 180 178 179 150 178 203 229 210 183 169 169 163 160 154
218 217 221 227 222 211 208 211 213 208 214 219 216 213 209 209 212 201 206 214 228 226 231 224 217 198 186 195 192 182 180 169 180 202 217 237 186 188 180 170 164 165 167
219 218 222 224 225 221 216 220 215 218 227 226 229 224 216 212 219 212 212 223 236 236 221 213 212 208 189 194 186 175 172 178 174 212 222 199 184 191 181 174 172 174 178
224 219 214 228 222 221 212 211 236 229 221 230 229 230 229 226 227 225 229 227 239 232 209 208 203 195 189 190 176 174 174 180 176 176 198 180 186 189 183 181 177 188 188
228 220 226 231 219 219 215 210 232 221 213 221 227 234 232 235 235 238 240 236 231 223 212 205 211 197 188 183 168 174 169 178 181 177 175 184 179 186 186 193 188 195 191
231 221 216 220 223 218 223 219 215 227 219 219 218 231 235 237 237 239 241 242 234 222 209 203 198 197 190 183 170 174 174 175 174 173 174 180 186 186 190 194 201 205 202
231 224 213 212 228 220 223 226 223 224 228 226 221 236 237 240 238 241 239 235 231 216 209 204 199 195 186 178 175 173 173 170 174 177 178 177 185 195 197 200 205 210 207
232 226 217 215 216 221 220 224 226 229 233 231 222 226 233 241 239 236 236 226 221 214 208 207 213 196 184 175 173 171 171 178 178 185 178 180 189 194 196 217 207 209 212
230 225 217 213 212 224 214 221 223 225 227 232 233 235 233 242 239 239 240 227 206 218 209 201 194 186 185 169 173 167 169 176 190 198 196 178 197 200 199 214 205 209 228
234 228 223 215 211 227 221 221 222 222 227 229 234 227 236 234 237 236 241 238 221 215 209 198 191 193 199 181 173 163 160 174 187 201 201 190 200 204 207 211 207 211 225
241 230 227 222 215 227 225 208 209 214 219 218 226 228 235 234 236 242 243 222 220 215 209 204 196 198 192 189 184 173 162 190 189 204 207 204 207 207 211 212 212 215 215
245 239 229 223 215 227 211 204 204 208 209 219 217 229 231 235 240 240 235 228 218 220 215 214 201 199 196 185 186 185 184 180 181 187 214 210 197 215 214 214 223 218 220
250 239 228 221 213 226 209 201 204 205 207 209 206 219 230 231 229 216 227 222 222 214 210 212 190 190 193 192 192 186 196 204 201 196 196 215 217 220 223 222 219 228 226
255 242 223 216 212 221 211 201 202 202 196 200 197 200 219 223 212 205 206 205 202 207 214 205 189 197 197 197 202 198 203 201 199 211 203 202 214 225 225 227 231 227 233